Regional Weather Roundup
Issued by NWS Boston, MA

Current Version | Previous Version | Text Only | Print | Product List | Glossary Off
Versions: 1 2 3 4 5 6 7 8 9 10 11 12 13 14 15 16 17 18 19 20 21 22 23 24 25 26 27 28 29 30 31 32 33 34 35 36 37 38 39 40 41 42 43 44 45 46 47 48 49

000
ASUS41 KBOX 180110
RWRBOX

REGIONAL WEATHER ROUNDUP
NATIONAL WEATHER SERVICE TAUNTON MA
800 PM EST WED DEC 17 2014

NOTE:  "FAIR" INDICATES FEW OR NO CLOUDS BELOW 12,000 FEET WITH NO
SIGNIFICANT WEATHER AND/OR OBSTRUCTIONS TO VISIBILITY.  THE FOLLOWING
OBSERVATION LOCATIONS DO NOT REPORT PRESENT WEATHER...PROVINCETOWN...
SMITHFIELD...BLOCK ISLAND...KEENE...AND OXFORD.

MAZALL-180200-
EASTERN MASSACHUSETTS

CITY           SKY/WX    TMP DP  RH WIND       PRES   REMARKS
BOSTON         CLOUDY    45  38  76 W14       29.73
BEVERLY        CLOUDY    44  38  79 W9        29.71S
LAWRENCE       CLOUDY    44  38  79 W10       29.74R
BEDFORD        CLOUDY    43  37  79 W10       29.73R
BLUE HILL        N/A     42  37  82 W16G24    29.71S
NORWOOD        CLOUDY    45  37  73 W12       29.73F
MARSHFIELD     MOCLDY    46  39  76 W7        29.73F
PLYMOUTH       PTCLDY    43  37  79 W10       29.73S
TAUNTON        PTCLDY    45  37  73 W5        29.74S
NEW BEDFORD    CLEAR     45  38  76 W12       29.74S
$$

MAZALL-180200-
CAPE COD AND THE ISLANDS

CITY           SKY/WX    TMP DP  RH WIND       PRES   REMARKS
FALMOUTH       CLOUDY    45  39  81 W8        29.74S
HYANNIS        CLOUDY    45  38  76 W10       29.72S
CHATHAM        CLOUDY    45  39  79 VRB7      29.73S
PROVINCETOWN   CLOUDY    46  41  81 W13G18    29.71S
NANTUCKET      MOCLDY    47  39  74 W15       29.74S
MARTHAS VNYRD  MOCLDY    46  38  73 W8        29.75F
$$

MAZALL-180200-
CENTRAL AND WESTERN MASSACHUSETTS

CITY           SKY/WX    TMP DP  RH WIND       PRES   REMARKS
WORCESTER      CLOUDY    37  33  85 W16G24    29.73S WCI  28
FITCHBURG      CLOUDY    43  34  70 W15       29.75S
ORANGE         LGT RAIN  39  33  79 W8        29.77S
SPRINGFIELD    LGT RAIN  40  33  74 NW13      29.79F
WESTFIELD      CLOUDY    41  30  65 NW14G25   29.81S
NORTH ADAMS    FLURRIES  35  31  85 W9        29.83F WCI  28
PITTSFIELD     LGT SNOW  33  31  92 NW8       29.80F FOG     WCI  26
$$

RIZALL-180200-
RHODE ISLAND

CITY           SKY/WX    TMP DP  RH WIND       PRES   REMARKS
PROVIDENCE     CLOUDY    46  35  65 W14       29.76F
NEWPORT        CLOUDY    45  38  76 W8        29.76S
BLOCK ISLAND   CLOUDY    46  39  76 W9G21     29.79R
SMITHFIELD     PTCLDY    43  30  61 W12G17    29.74S
WESTERLY       MOCLDY    46  39  76 VRB6      29.79S
$$

CTZALL-180200-
CONNECTICUT

CITY           SKY/WX    TMP DP  RH WIND       PRES   REMARKS
BRADLEY INTL   CLOUDY    42  32  67 NW12G21   29.81S
HARTFORD       LGT RAIN  43  34  70 W8        29.83R
BRIDGEPORT     CLOUDY    45  34  65 W7        29.85R
DANBURY        MOCLDY    40  31  70 W6        29.85S
GROTON         CLOUDY    44  41  89 NW9       29.79S
NEW HAVEN      CLOUDY    48  35  60 NW7       29.84R
CHESTER        MOCLDY    43  39  87 NW10      29.81S
MERIDEN        CLOUDY    43  35  73 NW7       29.83S
WILLIMANTIC    CLOUDY    44  34  67 NW9G23    29.80S
OXFORD         CLOUDY    41  30  65 NW12G18   29.83
$$

MEZ002-015-021-024-NHZ003-005-008-011-012-014-VTZ005-008-180200-
NORTHERN NEW ENGLAND

CITY           SKY/WX    TMP DP  RH WIND       PRES   REMARKS
PORTLAND ME    CLOUDY    39  36  89 N8        29.68F
BANGOR ME      LGT SNOW  35  33  92 N10       29.68S FOG     WCI  27
CONCORD NH     CLOUDY    39  37  92 NW3       29.72S
MANCHESTER NH  CLOUDY    43  37  79 VRB3      29.71S
NASHUA NH      MOCLDY    44  37  76 W12       29.73S
PORTSMOUTH NH  CLOUDY    42  39  89 W7        29.69S
JAFFREY NH     CLOUDY    37  34  89 W6        29.72F
KEENE NH       CLOUDY    37  36  93 S5        29.76S
BURLINGTON VT  LGT RAIN  36  34  92 CALM      29.77S FOG
MT. WASHINGTON SNOW      21  21 100 N39G45      N/A  VSB 1/16WCI   1
$$

NYZ052-076-180200-
EASTERN NEW YORK

CITY           SKY/WX    TMP DP  RH WIND       PRES   REMARKS
ALBANY         CLOUDY    38  29  70 NW13G23   29.86S WCI  30
NEW YORK CITY  LGT RAIN  45  36  70 NW17      29.88S
$$

ANZALL-180200-
MARINE OBSERVATIONS

STATION/POSITION TIME  TEMP    WIND        PRES    VSBY  WAVE
                       AIR SEA DIR/SP/G                  HT/PER
                 (UTC) (F)     (DEG/KT/KT) (MB)    (MI)  (FT/S)
BOSTON BUOY      0050   46 46  290/ 17/ 23 1005.9S         4/ 7
BUZZARDS BAY     0000          290/ 17/ 18 1008.4R
NANTUCKET SOUND  0050   46 44  270/ 14/ 16 1006.6F         2/ 3
MASS BAY-STELLWA 0004   44 44  290/ 12/ 14   N/A    1 7/8  4/ 8
ISLE OF SHOALS   0000   43     300/ 14/ 16 1004.9S
S OF BLOCK IS    0008      52                N/A           5/ 5
$$

......................KEY.........................
  SKY/WX - SKY CONDITION/PRESENT WEATHER
  TMP    - TEMPERATURE IN FAHRENHEIT
  DWPT   - DEWPOINT IN FAHRENHEIT
  RH     - RELATIVE HUMIDITY IN PERCENT
  WIND   - DIRECTION AND SPEED IN MPH
  PRES   - MEAN SEA LEVEL PRESSURE IN INCHES OF HG
  WCI    - WIND CHILL INDEX
  VSB    - VISIBILITY IN MILES
  HX     - HEAT INDEX
  TC     - TEMPERATURE IN CELSIUS
  VRB    - VARIABLE WIND DIRECTION
  N/A    - NOT AVAILABLE


USA.gov is the U.S. government's official web portal to all federal, state and local government web resources and services.